Dati Storici

Data ora Umidita' aria (%) Temperatura aria (°C) Rad globale (W/m²) Gonioanemometro (°) Tacoanemometro (m/s) Pioggia (mm)
15-06-2020 11:30 92.9 % 20.578 -26.237 0.34 0 0
15-06-2020 11:20 93.3 % 20.703 -4.187 0.455 0 0
15-06-2020 11:10 92.8 % 20.629 77.649 0.322 0 0
15-06-2020 11:00 92.9 % 20.263 -37.894 0.144 0 0
15-06-2020 10:50 96 % 20.225 -29.653 0.922 0 0
15-06-2020 10:40 97.6 % 20.103 27.174 0.547 0 0
15-06-2020 10:30 97.6 % 20.377 -61.57 2.183 0 0
15-06-2020 10:20 94.8 % 20.335 -41.746 1.012 0 0
15-06-2020 10:10 95.2 % 20.392 121.944 -0.011 0 0
15-06-2020 10:00 96.5 % 20.871 -2.911 -0.02 0 0
15-06-2020 09:50 96.9 % 20.49 -60.85 0.627 0 0
15-06-2020 09:40 95.8 % 20.34 -73.05 0.583 0 0
15-06-2020 09:30 95.2 % 20.498 -54.787 -0.014 0 0
15-06-2020 09:20 91.1 % 20.834 -73.401 0.171 0 0
15-06-2020 09:10 89.9 % 20.956 -54.175 -0.02 0 0
15-06-2020 09:00 88.3 % 20.643 -55.141 1.142 0 0
15-06-2020 08:50 87.2 % 21.038 -47.043 -0.021 0 0
15-06-2020 08:40 86.3 % 21.027 -64.58 1.597 0 0
15-06-2020 08:30 87.8 % 21.173 -53.134 0.545 0 0
15-06-2020 08:20 90.9 % 21.113 -57.027 -0.019 0 0

I dati sono presentati in modo automatico a scopo informativo. In seguito a verifica i dati possono subire modifiche o essere invalidati e non riportati negli archivi definitivi.